www.pogodaiklimat.ru

Погода и климат >> Архив погоды >> Италия >> Венеция


АРХИВ ПОГОДЫ в Венеции

Время (UTC), дата Ветер
(напр.,м/с)
 
Видим.   Явления Облачность Т
(С)
Тd
(С)
f
(%)
Тe
(С)
Тes
(С)
Комфортность P
(гПа)
Po
(гПа)
Тmin
(С)
Tmax
(С)
R
(мм)
R24
(мм)
S
(см)
15 10.09 В 3 25 км ясно +23.7 +12.2 48 +25 +29 комфорт 1016.9 1016.7
18 10.09 СВ 1 25 км ясно +20.4 +14.0 67 +24 +24 комфорт 1017.3 1017.1 +23.9 0.8
21 10.09 С 2 20 км ясно +17.9 +13.6 76 +18 +18 по сезону 1018.3 1018.1
00 11.09 С 3 н/о н/о +15.8 +11.8 77 +15 +15 прохладно 1018.8 1018.6
03 11.09 С 3 20 км ясно +15.4 +11.0 75 +15 +15 по сезону 1019.0 1018.8
06 11.09 С 3 50 км ясно +16.0 +11.1 73 +16 +16 по сезону 1019.8 1019.6 +14.7
09 11.09 СВ 5 50 км ясно +21.8 +12.5 55 +24 +29 комфорт 1021.1 1020.9
12 11.09 ЮВ 2 50 км 3/0
[Cc]
+24.6 +13.6 50 +27 +37 жарко 1020.6 1020.4
15 11.09 нст 1 25 км ясно +26.0 +11.5 40 +27 +32 жарко 1020.6 1020.4
18 11.09 СЗ 2 20 км ясно +21.3 +15.4 69 +24 +24 комфорт 1021.3 1021.1 +26.0
21 11.09 С 2 20 км ясно +20.3 +15.7 75 +24 +24 комфорт 1023.4 1023.2
00 12.09 С 3 20 км ясно +17.2 +14.1 82 +17 +17 по сезону 1024.2 1024.0
03 12.09 С 2 20 км ясно +16.6 +13.4 81 +17 +17 по сезону 1024.7 1024.5
06 12.09 СЗ 1 20 км ясно +16.8 +13.8 82 +18 +18 тепло 1026.6 1026.4 +15.8
09 12.09 СЗ 2 20 км ясно +24.3 +14.5 54 +27 +35 жарко 1028.3 1028.1
12 12.09 Ю 1 20 км ясно +26.9 +13.1 43 +29 +42 жарко 1028.4 1028.2
15 12.09 ЮВ 2 30 км ясно +27.4 +9.6 33 +28 +32 жарко 1027.5 1027.3
18 12.09 ЮВ 2 30 км ясно +22.9 +18.5 76 +29 +29 очень
душно
1027.9 1027.7 +28.0
21 12.09 Ю 1 20 км ясно +21.4 +14.2 64 +24 +24 комфорт 1028.8 1028.6
00 13.09 С 3 20 км ясно +18.9 +14.3 75 +20 +20 тепло 1029.4 1029.2
03 13.09 С 3 20 км ясно +17.3 +13.6 79 +17 +17 по сезону 1029.2 1029.0
06 13.09 СВ 3 25 км ясно +17.2 +13.8 80 +17 +18 тепло 1030.1 1029.9 +16.7
09 13.09 СВ 3 30 км ясно +24.3 +14.5 54 +27 +34 жарко 1030.6 1030.4
12 13.09 В 2 30 км ясно +26.5 +14.5 48 +29 +40 жарко 1029.3 1029.1
15 13.09 Ю 2 10 км ясно +26.5 +12.2 41 +28 +32 жарко 1027.9 1027.7
18 13.09 ЮВ 1 10 км ясно +23.0 +18.5 76 +29 +29 очень
душно
1027.6 1027.4 +26.8
21 13.09 ЮЗ 1 10 км ясно +21.7 +17.3 76 +26 +26 душно 1028.2 1028.0
00 14.09 С 2 30 км ясно +18.8 +15.1 79 +21 +21 комфорт 1028.3 1028.1
03 14.09 СВ 3 30 км ясно +16.8 +14.4 86 +17 +17 по сезону 1028.0 1027.8
06 14.09 СВ 3 10 км ясно +18.0 +14.9 82 +18 +19 тепло 1028.5 1028.3 +16.2
09 14.09 СВ 4 н/о н/о +25.1 +15.5 55 +28 +28 жарко 1028.9 1028.7
12 14.09 ЮВ 3 10 км ясно +26.8 +15.1 49 +30 +40 душно 1027.9 1027.7
15 14.09 Ю 1 20 км ясно +27.1 +15.6 49 +30 +34 душно 1026.3 1026.1
18 14.09 СВ 1 20 км ясно +23.2 +16.1 64 +28 +28 душно 1026.4 1026.2 +27.6
21 14.09 20 км ясно +21.3 +15.9 71 1026.7 1026.5
00 15.09 С 2 н/о н/о +20.8 +15.4 71 +25 +25 комфорт 1026.0 1025.8
03 15.09 С 3 10 км ясно +18.5 +15.7 84 +19 +19 тепло 1025.8 1025.6
06 15.09 С 2 10 км ясно +19.9 +15.5 76 +23 +24 комфорт 1026.0 1025.8 +18.4
09 15.09 В 3 10 км ясно +24.1 +15.7 59 +27 +34 жарко 1025.7 1025.5
12 15.09 ЮВ 2 10 км ясно +25.7 +16.3 56 +29 +40 душно 1023.9 1023.7
15 15.09 ЮВ 3 20 км ясно +25.4 +17.0 60 +29 +32 душно 1022.2 1022.0
18 15.09 Ю 1 20 км ясно +22.8 +17.7 73 +28 +28 душно 1021.5 1021.3 +26.3
21 15.09 ЮЗ 2 20 км ясно +21.6 +18.8 84 +26 +26 душно 1021.5 1021.3
00 16.09 С 1 н/о н/о +19.2 +17.6 90 +23 +23 комфорт 1020.8 1020.6
03 16.09 15 км ясно +18.6 +16.8 89 1019.8 1019.6
06 16.09 С 2 8000 м дымка ясно +18.2 +16.7 91 +19 +20 тепло 1019.5 1019.3 +17.0
09 16.09 ЮВ 1 10 км ясно +23.8 +16.7 64 +27 +37 жарко 1019.6 1019.4
12 16.09 ЮВ 3 10 км ясно +25.7 +19.2 67 +31 +40 очень
душно
1018.1 1017.9
15 16.09 ЮВ 4 30 км ясно +25.0 +18.7 68 +30 +32 душно 1016.5 1016.3
18 16.09 Ю 1 27 км ясно +23.4 +19.1 77 +30 +30 очень
душно
1016.0 1015.8 +26.2
21 16.09 ЮЗ 3 25 км ясно +23.2 +19.8 81 +30 +30 очень
душно
1016.3 1016.1
00 17.09 СВ 1 10 км ясно +20.1 +18.4 90 +25 +25 комфорт 1015.9 1015.7
03 17.09 В 2 8000 м дымка ясно +21.4 +19.9 91 +26 +26 душно 1014.9 1014.7
06 17.09 ЮВ 2 15 км 9/9 1500 м
[Sc]
+22.6 +20.7 89 +29 +30 очень
душно
1015.0 1014.8 +20.0
09 17.09 ЮВ 2 12 км 5/5 1500 м
[Sc]
+24.4 +20.2 77 +30 +34 очень
душно
1015.4 1015.1
12 17.09 ЮВ 3 15 км 9/9 1500 м
[Sc]
+24.8 +21.1 80 +31 +32 очень
душно
1014.4 1014.2

 

Местоположение метеостанции Венеция (Италия): широта 45.50 долгота 12.33 высота над уровнем моря 6 м.

В архиве по умолчанию представлена погода в Венеции за последнюю неделю. Архивные данные за месяц целиком и за предыдущие месяцы, начиная с января 2011 года, Вы можете получить, выбрав интересующий диапазон дат из раскрывающегося списка и нажав кнопку "Ввод!".


*Определитесь, кто Вы:
робот инопланетянин человек

Внимание! Время в таблицах - всемирное. Для получения местного времени необходимо прибавить поправку, которая равна 1 ч.

Смотрите также архив погоды в соседних городах и на ближайших метеорологических станциях:

Погода в Венеция аэропорту (Италия) (9 км)
Погода в Тревизо (Италия) (20 км)
Погода в Тревизо аэропорту (Италия) (27 км)
Погода в Конкордия-Саджиттарии (Италия) (49 км)
Погода в Авиано (Италия) (63 км)
Погода на Базе ВВС Авиано (Италия) (63 км)
Погода на Базе ВВС Риволто (Италия) (76 км)
Погода в Ферраре (Италия) (93 км)
Погода в Ронки-деи-Леджонари (Италия) (96 км)
Погода в Портороже (Словения) (97 км)

Пояснения к столбцам:

Ветер - указаны скорость ветра в м/с - средняя за 10 мин, порывы в срок и между сроками (в фигурных скобках) и направление, откуда дует ветер: С - северный, СВ - северо-восточный, В - восточный, ЮВ - юго-восточный, Ю - южный, ЮЗ - юго-западный, З - западный, СЗ - северо-западный.
Видимость - горизонтальная дальность видимости в метрах или километрах. При видимости от 1 до 10 км при отсутствии осадков обычно наблюдается дымка, при ухудшении видимости до 1 км и менее - туман. В сухую погоду видимость может ухудшаться дымом, пылью или мглою.
Явления - указаны атмосферные явления, наблюдавшиеся в срок или в последний час перед сроком; фигурными скобками обозначены явления, наблюдавшиеся между сроками (за 1-3 часа до срока); квадратными скобками обозначены град или гололедные отложения с указанием их диаметра в мм.
Облачность - указаны через наклонную черту общая и нижняя облачность в баллах и высота нижней границы облаков в метрах; квадратными скобками обозначены формы облаков: Ci - перистые, Cs - перисто-слоистые, Cc - перисто-кучевые, Ac - высококучевые, As - высокослоистые, Sc - слоисто-кучевые, Ns - слоисто-дождевые, Cu - кучевые, Cb - кучево-дождевые. Подробнее классификацию облаков см. в Атласе облаков (PDF).
T - Температура воздуха - температура, измеренная на высоте 2 м над землей.
Td - Температура точки росы - температура, при понижении до которой содержащийся в воздухе водяной пар достигнет насыщения.
f - Относительная влажность воздуха - влажноcть воздуха, измеренная на высоте 2 м над землей.
Te - Эффективная температура - температура, которую ощущает одетый по сезону человек в тени. Характеристика душности погоды. При расчете учитывается влияние влажности воздуха и скорости ветра на теплоощущения человека.
Tes - Эффективная температура на солнце - температура, которую ощущает человек, с поправкой на солнечный нагрев. Характеристика знойности погоды. Зависит от высоты солнца над горизонтом, облачности и скорости ветра. Ночью, в пасмурную погоду, а также при ветре 12 м/с и более поправка равна нулю.
P - Атмосферное давление - приведенное к уровню моря атмосферное давление.
Po - Атмосферное давление - измеренное на уровне метеостанции атмосферное давление.
Tmin - Минимальная температура - минимум температуры воздуха на высоте 2 м над землей.
Tmax - Максимальная температура - максимум температуры воздуха на высоте 2 м над землей.
R - Количество осадков - Количество выпавших осадков за период времени, мм. При наведении курсора мыши на число - период времени, за который выпало указанное количество осадков.
R24 - Количество осадков - Количество выпавших осадков за 24 часа, мм.
S - Снежный покров - Высота снежного покрова, см. При наведении курсора мыши на число - состояние снежного покрова и степень покрытия местности в баллах.